Regional Weather Roundup
Issued by NWS

Home | Current Version | Previous Version | Text Only | Print | Product List | Glossary On
Versions: 1 2 3 4 5 6 7 8 9 10 11 12 13 14 15 16 17 18 19 20 21 22 23 24 25 26 27 28 29 30 31 32 33 34 35 36 37 38 39 40 41 42 43 44 45 46 47 48 49 50
000
ASCA44 KEWX 240220
RWRMX

LATIN AMERICA AND CARIBBEAN REGIONAL WEATHER ROUNDUP
NATIONAL WEATHER SERVICE AUSTIN/SAN ANTONIO TX
900 PM CDT TUE AUG 23 2016

NOTE: "FAIR" INDICATED FEW OR NO CLOUDS BELOW 12,000 FEET WITH NO
SIGNIFICANT WEATHER AND/OR OBSTRUCTIONS TO VISIBILITY.

BAJA CALIFORNIA

CITY           SKY/WX    TMP DP  RH WIND       PRES   REMARKS
LORETO           N/A    N/A N/A N/A MISG        N/A
LA PAZ         MOCLDY    82  72  69 S12       29.96R
MEXICALI       CLEAR    102  39  11 S6        29.82S HX  97
S.J. DEL CABO  MOCLDY    77  73  88 N6        29.96F
TIJUANA        CLEAR     72  57  60 W14       30.02S

NORTHWESTERN MEXICO

CITY           SKY/WX    TMP DP  RH WIND       PRES   REMARKS
CULIACAN       MOCLDY    82  75  78 CALM      29.92R
DURANGO        MOCLDY    68  57  68 CALM      30.29S
GUAYMAS        PTCLDY    90  81  74 CALM      29.86R HX 108
HERMOSILLO     PTCLDY    93  75  55 SW12      29.92R HX 104
CD. JUAREZ     CLOUDY    79  61  53 SE12      30.02R
LOS MOCHIS     MOCLDY    82  72  69 CALM      29.94R
OBREGON        PTCLDY    86  73  66 S3        29.90R HX  93

NORTHEASTERN MEXICO

CITY           SKY/WX    TMP DP  RH WIND       PRES   REMARKS
CHIHUAHUA      CLOUDY    72  66  83 CALM      30.19R
MATAMOROS      CLEAR     84  75  74 SE7       30.07S HX  92
MONCLOVA         N/A    N/A N/A N/A MISG        N/A
MONTERREY      PTCLDY    86  63  45 E12       30.02R
NUEVO LAREDO     N/A    N/A N/A N/A MISG        N/A
PIEDRAS NEGRAS   N/A    N/A N/A N/A MISG        N/A
REYNOSA        CLEAR     82  68  61 S14       30.05S
SALTILLO       CLEAR     73  57  56 N17       30.24S
TORREON        PTCLDY    86  61  42 CALM      30.08R
CD. VICTORIA     N/A    N/A N/A N/A MISG        N/A

WESTERN MEXICO

CITY           SKY/WX    TMP DP  RH WIND       PRES   REMARKS
AGUASCALIENTES MOCLDY    68  54  60 W5        30.30R
COLIMA         MOCLDY    70  66  88 N12       30.13F
DEL BAJIO      MOCLDY    70  54  56 NE9       30.32R
GUADALAJARA    CLOUDY    66  61  82 CALM      30.25R
MANZANILLO       N/A    N/A N/A N/A MISG        N/A
MAZATLAN       PTCLDY    84  75  74 NW5       29.92R HX  92
P. VALLARTA    MOCLDY    81  77  89 NE3       29.95R
URUAPAN          N/A    N/A N/A N/A MISG        N/A
ZACATECAS      PTCLDY    64  50  59 E12       30.34R

CENTRAL MEXICO

CITY           SKY/WX    TMP DP  RH WIND       PRES   REMARKS
CUERNAVACA       N/A    N/A N/A N/A MISG        N/A
MEXICO CITY    TSTM      59  55  88 N10       30.40R
MORELIA        LGT RAIN  59  59 100 W9        30.30S
POZA RICA      CLOUDY    73  72  94 CALM      30.10S
PUEBLA           N/A    N/A N/A N/A MISG        N/A
QUERETARO      MOCLDY    66  57  72 NE23      30.37R
S. LUIS POTOSI MOCLDY    66  52  59 E16       30.36R
TAMPICO        MOCLDY    79  73  83 S9        30.07
TOLUCA         TSTM      54  52  94 NE7       30.48R

SOUTHERN MEXICO

CITY           SKY/WX    TMP DP  RH WIND       PRES   REMARKS
ACAPULCO       CLOUDY    84  75  74 N7        29.98R HX  92
B. DE HUATULCO   N/A    N/A N/A N/A MISG        N/A
OAXACA         CLOUDY    66  59  77 NW8       30.31R
P. ESCONDIDO     N/A    N/A N/A N/A MISG        N/A
VERACRUZ       MOCLDY    75  73  94 CALM      30.06R
ZIHUATANEJO    MOCLDY    82  75  78 CALM      29.96R

YUCATAN PENINSULA

CITY           SKY/WX    TMP DP  RH WIND       PRES   REMARKS
CAMPECHE       PTCLDY    86  82  89 N12       29.99R HX 105
CANCUN         PTCLDY    82  79  89 CALM      30.06S HX  93
CHETUMAL       MOCLDY    86  77  74 E12       30.05R HX  97
CD. DEL CARMEN MOCLDY    86  79  79 NE8       30.02R HX  99
COZUMEL        PTCLDY    79  77  94 NE5       30.06R
MERIDA         CLEAR     84  77  79 NE7       30.05R HX  94
MINATITLAN       N/A    N/A N/A N/A MISG        N/A
TAPACHULA      PTCLDY    84  79  84 CALM      29.86S HX  96
TUX. GUTIERREZ CLOUDY    77  68  73 SE8       30.01S
VILLAHERMOSA   MOCLDY    82  73  74 NE8       30.02R

CENTRAL AMERICA

CITY           SKY/WX    TMP DP  RH WIND       PRES   REMARKS
MANAGUA        PTCLDY    79  72  78 SE7       29.86S

CARIBBEAN

CITY           SKY/WX    TMP DP  RH WIND       PRES   REMARKS
ARUBA          PTCLDY    84  77  79 E17       29.89R HX  94
CURACAO        PTCLDY    82  77  83 E14       29.92R HX  91
KINGSTON       PTCLDY    84  77  79 W7        29.92S HX  94
NASSAU         PTCLDY    84  75  74 NE9       30.06R HX  92
SAN JUAN       MOCLDY    82  77  83 NE15      29.95S HX  91
SANTO DOMINGO  PTCLDY    77  75  94 CALM      29.94S
ST. CROIX      MOCLDY    82  77  83 CALM      29.94  HX  91
ST. KITTS      LGT RAIN  81  79  94 NE14      29.92S
ST. MAARTEN    PTCLDY    82  77  83 E12       29.89F HX  91
ST. THOMAS     HVY RAIN  81  79  94 SE5       29.93  FOG

$$




USA.gov is the U.S. government's official web portal to all federal, state and local government web resources and services.